Location: Brno
(49.2000°N, 16.6330°E)
Time: 19:05:02
(UTC+02:00)

Transit 4A - Pass Details

Date: 30 July 2021
Orbit: 871 x 974 km, 66.8° (Epoch: 16 September)

Event Time Altitude Azimuth Distance (km) Brightness Sun altitude
Rises 03:46:46 0° 266° (W) 3,477 - -12.9°
Exits shadow 03:47:46 - 270° (W) 3,156 10.3 -12.8°
Reaches altitude 10° 03:49:51 10° 282° (WNW) 2,531 9.9 -12.5°
Maximum altitude 03:54:19 22° 332° (NNW) 1,815 9.7 -12.1°
Drops below altitude 10° 03:58:48 10° 22° (NNE) 2,529 11.4 -11.6°
Sets 04:01:53 0° 38° (NE) 3,474 13.0 -11.2°
